Regional Weather Roundup
Issued by NWS Jackson, KY

Home | Current Version | Previous Version | Graphics & Text | Print | Product List | Glossary On
Versions: 1 2 3 4 5 6 7 8 9 10 11 12 13 14 15 16 17 18 19 20 21 22 23 24 25 26 27 28
000
ASUS43 KJKL 230210
RWRJKL

EAST KENTUCKY HOURLY WEATHER ROUNDUP
NATIONAL WEATHER SERVICE JACKSON KY
1000 PM EDT FRI JUL 22 2016

NOTE: "FAIR" INDICATES FEW OR NO CLOUDS BELOW 12,000 FEET WITH
NO SIGNIFICANT WEATHER AND/OR OBSTRUCTIONS TO VISIBILITY.

* THESE REPORTS ARE NOT UNDER NWS QUALITY CONTROL AND MAY NOT
  REPORT WEATHER SUCH AS PRECIPITATION AND FOG.

KYZ079-080-083-085-087-088-110-112-115-119-120-230300
...EASTERN KENTUCKY...

CITY           SKY/WX    TMP DP  RH WIND       PRES   REMARKS
JACKSON        CLOUDY    72  69  90 CALM      30.05R
LONDON         MOCLDY    74  70  87 SW8       30.07R
SOMERSET*      LGT RAIN  70  70 100 CALM      30.08S
MONTICELLO*    RAIN     N/A N/A N/A N3        30.08R
WILLIAMSBURG*  MOCLDY    73  73 100 N6        30.08R
MIDDLESBORO*   CLOUDY    78  73  84 CALM      30.06R
HARLAN APT*    MOCLDY    77  72  83 CALM      30.07R
PIKE CO APT*     N/A     73  70  89 CALM      30.06R
MOREHEAD APT*  FOG       72  70  94 CALM      30.06R VSB<1/4
ASHLAND*       CLEAR     73  72  94 CALM      30.01R
$$

KYZ035-036-041-042-044-050-067-078-099-230300
...CENTRAL KENTUCKY...

CITY           SKY/WX    TMP DP  RH WIND       PRES   REMARKS
MT STERLING*   PTCLDY    72  72 100 W3        30.06R
FLEMING/MASON* CLEAR     71  70  95 CALM      30.05R
DANVILLE*      CLOUDY    72  70  94 SW6       30.07S
RICHMOND*      CLOUDY    73  70  88 CALM      30.04F
LEXINGTON      PTCLDY    75  70  84 SW7       30.06R
FRANKFORT      MOCLDY    79  70  74 S8        30.03R
LOUISVILLE     CLOUDY    79  69  71 S7        30.01R
LEBANON*         N/A     73  72  94 CALM      30.06R
GLASGOW*       CLOUDY    74  74 100 E3        30.04R
BOWLING GREEN  MOCLDY    78  73  84 CALM      30.03R
$$

KYZ091>093-OHZ055-061-077-WVZ005-015-034-035-042-230300
...SOUTHERN OHIO/WEST VIRGINIA...

CITY           SKY/WX    TMP DP  RH WIND       PRES   REMARKS
COVINGTON      PTCLDY    76  72  87 S6        30.02S
COLUMBUS       PTCLDY    78  70  76 CALM      30.00R
DAYTON         MOCLDY    80  74  81 S9        30.03R
WILMINGTON     CLOUDY    75  71  87 S6        30.04R
HUNTINGTON       N/A     73  70  90 CALM      30.03R
CHARLESTON       N/A     75  69  81 CALM      30.04R
PINEVILLE*       N/A     73  69  88 MISG      30.13R
BECKLEY          N/A     72  67  84 E3        30.13R
BLUEFIELD        N/A     72  64  76 CALM      30.15R
LOGAN CO APT*    N/A     75  72  88 CALM      30.05R
$$

VAZ002-007-008-TNZ017-027-036-066-071-230300
...SOUTHWEST VIRGINIA/EAST TENNESSEE...

CITY           SKY/WX    TMP DP  RH WIND       PRES   REMARKS
WISE*            N/A     75  61  60 CALM      30.15R
JONESVILLE*      N/A     77  73  88 CALM      30.08R
ABINGDON*        N/A     77  66  69 CALM      30.10R
BRISTOL        CLOUDY    80  69  69 SE3       30.05R
MORRISTOWN*    MOCLDY    82  72  69 CALM      30.04R
SEVIERVILLE*   PTCLDY    81  66  61 CALM      30.02R
KNOXVILLE      MOCLDY    83  71  67 CALM      30.00S
OAK RIDGE      MOCLDY    86  70  58 VRB3      30.03R HX  90
CROSSVILLE     MOCLDY    77  74  90 W3        30.10R
NASHVILLE      CLOUDY    83  67  58 N5        30.02R
$$

...KEY TO REMARKS...
VSB - VISIBILITY IN MILES
WCI - WIND CHILL INDEX
HX  - HEAT INDEX

$$




USA.gov is the U.S. government's official web portal to all federal, state and local government web resources and services.